{"data":{"norad_id":67781,"intl_designator":"2026-030T","name":"KUIPER-00220","alt_names":[],"object_type":"PAYLOAD","status":"ACTIVE","operator":null,"country":"US","launch_date":"2026-02-12","launch_site_code":"FRGUI","launch_vehicle":null,"mission":null,"orbit_class":"UNKNOWN","rcs_meters":null,"size_class":null,"mass_kg":null,"dimensions":null,"purposes":[],"wikipedia_slug":null,"has_3d_model":false,"image_url":null,"decayed_at":null,"tle_current":{"epoch":"2026-05-25T04:00:03.998880Z","epoch_age_seconds":56780,"freshness":"FRESH","line1":"1 67781U 26030T   26145.16671295 -.01216923  00000+0 -49259-1 0  9990","line2":"2 67781  51.8850 210.8009 0008398 343.6538 185.5983 15.26943156  5576","mean_motion":15.26943156,"eccentricity":0.0008398,"inclination_deg":51.885,"raan_deg":210.8009,"arg_perigee_deg":343.6538,"mean_anomaly_deg":185.5983,"bstar":-0.049259,"rev_number":557,"period_min":94.306064658768,"perigee_km":479.1930727349,"apogee_km":490.72032491144,"semimajor_km":6863.0936988232,"source":"CELESTRAK","updated_at":"2026-05-25T13:38:07.260085Z"}}}